星链-34723 (STARLINK-34723)

导读 | 豆包AI

STARLINK-34723是美国于2025年7月19日发射的星链卫星,隶属于SpaceX公司的星链互联网星座项目。星链计划旨在通过大规模低轨卫星组网,为全球提供高速低延迟宽带互联网服务,覆盖偏远地区并补充现有地面网络覆盖,该卫星是星链星座部署扩容过程中的组成单元。

基本信息
目录编号:
64842
目录名称:
STARLINK-34723
国际标识:
2025-152A
轨道中心:
EARTH
卫星名称:
星链-34723
卫星全名:
星链-34723 (STARLINK-34723)
卫星状态:
在轨 (已飞行284 天)
发射日期:
2025-07-19 UTC
国别 :
美国 (US)
星等 :
--
轨道信息
数据来源 国际轨道数据 AOE轨道数据
星历时间 2026-04-29T11:13:41+0800
10小时前
查看轨道信息
2026-04-28T06:00:00+0800
1天前
查看轨道信息
半长轴 6927.675km 6927.664km
偏心率 0.0002121 0.0001119
轨道倾角 97.561° 97.570°
近地点辐角 75.510° 85.493°
升交点赤经 335.127° 333.930°
平近点角 284.636° 157.836°
近地点 548.068km 548.751km
远地点 551.008km 550.303km
周期 95.640分钟 95.640分钟
每日圈数 15.056414 15.056451
详细信息
固有亮度:
5
最大亮度:
2.5
卫星平台:
Starlink V1.0
覆盖范围:
全球
运营商:
太空探索技术公司
运营商所在国:
美国
制造商(研发单位):
太空探索技术公司
制造商所在国:
美国
使用方式:
暂无
卫星简介
Starlink 计划是 SpaceX 推出的全球卫星互联网项目,通过发射低轨道卫星,为全球尤其是偏远地区提供高速、低延迟的互联网服务。自 2019 年起,Starlink 已部署数千颗卫星,旨在缩小全球数字鸿沟,推动互联网普及。该项目还为军事、航空等行业提供通信支持,带来广泛经济效益。
2D轨道图
3D轨道图
轨道高度分析图
轨道倾角分析图
轨道综合分析图
查看轨道综合分析图